Location: Banksville Park
(38.5557°N, 75.1182°W)
Time: 13:46:02
(UTC+00:00)

Cosmos 1605 Rocket - Pass Details

Date: 19 September 2020
Orbit: 946 x 1005 km, 82.9° (Epoch: 27 October)

Event Time Altitude Azimuth Distance (km) Brightness Sun altitude
Rises 08:39:52 0° 355° (N) 3,731 7.3 -24.8°
Reaches altitude 10° 08:42:25 10° 357° (N) 2,782 6.6 -24.3°
Maximum altitude 08:48:50 74° 82° (E) 1,046 4.2 -23.1°
Drops below altitude 10° 08:55:12 10° 168° (SSE) 2,767 6.3 -22.0°
Sets 08:57:43 0° 170° (S) 3,709 6.9 -21.5°
